Location: Newark
(35.8833°N, 14.5000°E)
Time: 12:08:24
(UTC+00:00)

Hubble Space Telescope - Visible Passes

Search period start: 21 October 2019 00:00
Search period end: 31 October 2019 00:00
Orbit: 536 x 540 km, 28.5° (Epoch: 20 October)

Date Brightness Start Highest point End Pass type
(mag) Time Alt. Az. Time Alt. Az. Time Alt. Az.
29 Oct 2.8 04:44:09 10° SW 04:47:25 23° S 04:50:41 10° ESE visible
30 Oct 3.5 02:57:01 12° SSE 02:57:01 12° SSE 02:57:55 10° SE visible
30 Oct 2.6 04:33:22 10° SW 04:36:46 25° S 04:40:10 10° ESE visible
